This is the latest recevied weather packets stored in our database for station/object DR0T. If no packets are shown the sender has not sent any weather packets the latest 10 day(s).
| Time | Temp. | Humidity | Pressure | Rain* | Wind** | Luminosity | Snow |
|---|---|---|---|---|---|---|---|
| 1778200654 | 6.11° C | 99% | 1017.2 hPa | 0 mm | - | - | - |
| 1778200353 | 6.11° C | 99% | 1017.2 hPa | 0 mm | - | - | - |
| 1778200052 | 6.11° C | 99% | 1017.3 hPa | 0 mm | - | - | - |
| 1778199750 | 6.11° C | 99% | 1017.2 hPa | 0 mm | - | - | - |
| 1778199451 | 5.56° C | 99% | 1017.2 hPa | 0 mm | - | - | - |
| 1778199151 | 5.56° C | 98% | 1017.3 hPa | 0 mm | - | - | - |
| 1778198846 | 5.56° C | 98% | 1017.4 hPa | 0 mm | - | - | - |
| 1778198545 | 5.56° C | 98% | 1017.3 hPa | 0 mm | - | - | - |
| 1778198244 | 5.56° C | 98% | 1017.4 hPa | 0 mm | - | - | - |
| 1778197942 | 6.11° C | 98% | 1017.4 hPa | 0 mm | - | - | - |
| 1778197643 | 6.67° C | 98% | 1017.5 hPa | 0 mm | - | - | - |
| 1778197340 | 6.67° C | 98% | 1017.6 hPa | 0 mm | - | - | - |
| 1778197045 | 7.22° C | 98% | 1017.6 hPa | 0 mm | - | - | - |
| 1778196737 | 7.22° C | 98% | 1017.6 hPa | 0 mm | - | - | - |
| 1778196440 | 6.67° C | 98% | 1017.7 hPa | 0 mm | - | - | - |
| 1778196155 | 6.67° C | 97% | 1017.7 hPa | 0 mm | - | - | - |
| 1778195854 | 6.67° C | 96% | 1017.6 hPa | 0 mm | - | - | - |
| 1778195555 | 7.22° C | 96% | 1017.6 hPa | 0 mm | - | - | - |
| 1778195251 | 7.22° C | 96% | 1017.7 hPa | 0 mm | - | - | - |
| 1778194950 | 7.22° C | 96% | 1017.6 hPa | 0 mm | - | - | - |
| 1778194651 | 7.22° C | 96% | 1017.6 hPa | 0 mm | - | - | - |
| 1778194348 | 7.22° C | 95% | 1017.6 hPa | 0 mm | - | - | - |
| 1778194046 | 7.22° C | 95% | 1017.5 hPa | 0 mm | - | - | - |
| 1778193745 | 7.78° C | 95% | 1017.7 hPa | 0 mm | - | - | - |
| 1778193444 | 7.78° C | 96% | 1017.6 hPa | 0 mm | - | - | - |
* Rain latest hour (hover to see other rain measurements)
** Current wind speed in m/s (hover to see current wind gust speed)